Overview Statistics Trail Chart Weather Telemetry Raw packets
 

This is the latest recevied weather packets stored in our database for station/object KO4DYK. If no packets are shown the sender has not sent any weather packets the latest 10 day(s).

<< 97 98 99 100 101 102 103 >>
Time Temp. Humidity Pressure Rain* Wind** Luminosity Snow
1787927952 25.56° C 80% 1021.1 hPa 0 mm - 441 W/m² -
1787927647 25.56° C 82% 1021.1 hPa 0 mm - 426 W/m² -
1787927342 25.56° C 82% 1020.9 hPa 0 mm - 372 W/m² -
1787927038 25° C 83% 1020.9 hPa 0 mm - 368 W/m² -
1787926738 24.44° C 84% 1020.9 hPa 0 mm - 349 W/m² -
1787926436 25° C 84% 1020.8 hPa 0 mm - 283 W/m² -
1787926131 24.44° C 86% 1020.9 hPa 0 mm - 97 W/m² -
1787925831 23.89° C 87% 1020.8 hPa 0 mm - 259 W/m² -
1787925530 23.89° C 89% 1020.7 hPa 0 mm - 239 W/m² -
1787925225 23.33° C 90% 1020.8 hPa 0 mm - 236 W/m² -
1787924924 22.78° C 91% 1020.6 hPa 0 mm - 256 W/m² -
1787924624 22.22° C 93% 1020.6 hPa 0 mm - 235 W/m² -
1787924319 22.22° C 94% 1020.8 hPa 0 mm - 235 W/m² -
1787924021 21.67° C 95% 1020.7 hPa 0 mm - 188 W/m² -
1787923709 21.67° C 96% 1020.6 hPa 0 mm - 116 W/m² -
1787923404 21.11° C 98% 1020.4 hPa 0 mm - 91 W/m² -
1787923099 20.56° C 99% 1020.5 hPa 0 mm - 80 W/m² -
1787922794 20.56° C 99% 1020.5 hPa 0 mm - 74 W/m² -
1787922493 20° C 99% 1020.4 hPa 0 mm - 48 W/m² -
1787922193 20° C 99% 1020.3 hPa 0 mm - 46 W/m² -
1787921890 19.44° C 99% 1020.2 hPa 0 mm - 44 W/m² -
1787921585 19.44° C 99% 1020.4 hPa 0 mm - 42 W/m² -
1787921284 18.89° C 99% 1020.5 hPa 0 mm - 41 W/m² -
1787920981 18.89° C 99% 1020.5 hPa 0 mm - 40 W/m² -
1787920675 18.33° C 99% 1020.2 hPa 0 mm - 37 W/m² -

* Rain latest hour (hover to see other rain measurements)
** Current wind speed in m/s (hover to see current wind gust speed)